Location: Colonia Mina de C?rbuni
(46.1667°N, 22.7167°E)
Time: 17:52:11
(UTC+00:00)

Meteor 2-12 Rocket - Pass Details

Date: 04 February 2023
Orbit: 935 x 957 km, 82.5° (Epoch: 29 March)

Event Time Altitude Azimuth Distance (km) Brightness Sun altitude
Rises 16:50:02 0° 351° (N) 3,621 7.5 -12.8°
Reaches altitude 10° 16:52:33 10° 353° (N) 2,669 6.8 -13.2°
Maximum altitude 16:58:39 78° 81° (E) 964 4.3 -14.2°
Drops below altitude 10° 17:04:41 10° 167° (SSE) 2,640 6.7 -15.3°
Sets 17:07:09 0° 169° (S) 3,579 7.4 -15.7°
